COLIBRI-S (RS67S)

Last updated on Fri Dec 19 2025 00:03:12 GMT+0000 (Coordinated Universal Time)

1 61746U 24199M 25352.60370332 .00016503 00000+0 42165-3 0 9995 2 61746 97.3258 220.5377 0008806 206.7090 153.3703 15.39500507109559
UTC large
Height (km)
Speed (km/s)
/
Latitude / Longitude
Inclination (degrees)
Orbital Period (minutes)
Azimuth
Elevation
Range (km)
Doppler Factor

Next 0 passes for location: London (51.5072 / 0.1276)

Sorry there are no passes over London.